Tiruchchirapalli, India

10:08 AM IST on February 20, 2017 (GMT +0530)
Tiruchirappalli

Weather History for VOTR - June, 2013

Change the Weather History Date:

Saturday, June 15, 2013

  Actual Average Record
Temperature  
Mean Temperature 88 °F -  
Max Temperature 101 °F 94 °F 104 °F (2005)
Min Temperature 75 °F 81 °F 75 °F (2012)
Cooling Degree Days 23    
Growing Degree Days 38 (Base 50)    
Moisture  
Dew Point 68 °F    
Average Humidity 47    
Maximum Humidity 62    
Minimum Humidity 21    
Precipitation  
Precipitation 0.00 in - - ()
Sea Level Pressure  
Sea Level Pressure 29.61 in    
Wind  
Wind Speed 13 mph ()    
Max Wind Speed 23 mph    
Max Gust Speed 34 mph    
Visibility 3.4 miles    
Events      
Averages and records for this station are not official NWS values.
T = Trace of Precipitation, MM = Missing Value Source: Averaged Metar Reports

Daily Weather History Graph

Daily Weather History Graph

Search for Another Location

Airport or City:

Trip Planner

Search our weather history database for the weather conditions in past years. The results will help you decide how hot, cold, wet, or windy it might be!

Date:

Astronomy

Jun. 15, 2013 Rise Set
Actual Time 5:53 AM IST 6:38 PM IST
Civil Twilight 5:29 AM IST 7:01 PM IST
Nautical Twilight 5:02 AM IST 7:28 PM IST
Astronomical Twilight 4:35 AM IST 7:56 PM IST
Moon 11:04 AM IST (6/15) 11:31 PM IST (6/15)
Length of Visible Light 13h 31m
Length of Day
12h 45m
Waxing Crescent, 35% of the Moon is Illuminated
Jun 15
Waxing Crescent
Jun 16
First Quarter
Jun 23
Full
Jun 30
Last Quarter
Jul 8
New

Hourly Weather History & Observations

Time (IST) Temp. Heat Index Dew Point Humidity Pressure Visibility Wind Dir Wind Speed Gust Speed Precip Events Conditions
12:10 AM 86.0 °F 90.4 °F 69.8 °F 58% 29.62 in 3.1 mi WNW 13.8 mph 25.3 mph N/A   Haze
12:40 AM 86.0 °F 90.4 °F 69.8 °F 58% 29.62 in 3.1 mi West 15.0 mph 28.8 mph N/A   Haze
1:10 AM 86.0 °F 90.4 °F 69.8 °F 58% 29.62 in 3.1 mi West 11.5 mph 23.0 mph N/A   Haze
1:40 AM 84.2 °F 88.4 °F 69.8 °F 62% 29.59 in 3.1 mi West 13.8 mph 25.3 mph N/A   Haze
2:10 AM 84.2 °F 87.3 °F 68.0 °F 58% 29.59 in 3.1 mi West 13.8 mph 25.3 mph N/A   Haze
2:30 AM 85 °F - 69 °F 49% 29.59 in 1 mi WNW 11.5 mph - -   Haze
2:40 AM 84.2 °F 87.3 °F 68.0 °F 58% 29.59 in 3.1 mi West 15.0 mph 26.5 mph N/A   Haze
3:10 AM 84.2 °F 88.4 °F 69.8 °F 62% 29.59 in 3.1 mi West 15.0 mph 26.5 mph N/A   Haze
3:40 AM 84.2 °F 88.4 °F 69.8 °F 62% 29.59 in 3.1 mi West 12.7 mph 24.2 mph N/A   Haze
4:10 AM 84.2 °F 88.4 °F 69.8 °F 62% 29.59 in 3.1 mi West 13.8 mph - N/A   Haze
4:40 AM 84.2 °F 88.4 °F 69.8 °F 62% 29.59 in 3.1 mi West 13.8 mph - N/A   Haze
5:10 AM 84.2 °F 88.4 °F 69.8 °F 62% 29.59 in 3.1 mi West 11.5 mph - N/A   Haze
5:30 AM 84 °F - 69 °F 51% 29.60 in 1 mi West 11.5 mph - -   Haze
5:40 AM 84.2 °F 88.4 °F 69.8 °F 62% 29.59 in 3.1 mi West 13.8 mph - N/A   Haze
6:10 AM 84.2 °F 88.4 °F 69.8 °F 62% 29.62 in 2.5 mi West 12.7 mph - N/A   Haze
6:40 AM 84.2 °F 88.4 °F 69.8 °F 62% 29.62 in 2.5 mi West 12.7 mph - N/A   Haze
7:10 AM 86.0 °F 90.4 °F 69.8 °F 58% 29.62 in 2.5 mi West 8.1 mph - N/A   Haze
7:40 AM 86.0 °F 90.4 °F 69.8 °F 58% 29.62 in 2.5 mi West 15.0 mph - N/A   Haze
8:10 AM 87.8 °F 92.6 °F 69.8 °F 55% 29.65 in 2.5 mi West 15.0 mph - N/A   Haze
8:30 AM 89 °F - 68 °F 41% 29.63 in 2 mi West 17.3 mph - -   Haze
8:40 AM 89.6 °F 94.7 °F 69.8 °F 52% 29.65 in 2.5 mi West 18.4 mph - N/A   Haze
9:10 AM 91.4 °F 96.8 °F 69.8 °F 49% 29.65 in 2.5 mi West 19.6 mph 31.1 mph N/A   Haze
10:10 AM 95.0 °F 99.5 °F 68.0 °F 41% 29.62 in 3.1 mi West 19.6 mph 31.1 mph N/A   Haze
10:40 AM 95.0 °F 99.5 °F 68.0 °F 41% 29.62 in 3.1 mi West 21.9 mph - N/A   Haze
11:10 AM 96.8 °F 100.7 °F 66.2 °F 37% 29.62 in 3.7 mi West 20.7 mph 32.2 mph N/A   Partly Cloudy
11:30 AM 98 °F - 65 °F 24% 29.61 in 2 mi WNW 23.0 mph - -   Haze
11:40 AM 96.8 °F 100.7 °F 66.2 °F 37% 29.62 in 3.7 mi West 23.0 mph 34.5 mph N/A   Scattered Clouds
12:10 PM 98.6 °F 102.8 °F 66.2 °F 35% 29.62 in 3.7 mi West 23.0 mph 34.5 mph N/A   Scattered Clouds
12:40 PM 100.4 °F 104.9 °F 66.2 °F 33% 29.62 in 3.7 mi West 20.7 mph 32.2 mph N/A   Partly Cloudy
1:10 PM 100.4 °F 106.3 °F 68.0 °F 35% 29.59 in 5.0 mi West 18.4 mph 32.2 mph N/A   Scattered Clouds
1:40 PM 100.4 °F 106.3 °F 68.0 °F 35% 29.59 in 5.0 mi West 15.0 mph 26.5 mph N/A   Scattered Clouds
2:10 PM 100.4 °F 106.3 °F 68.0 °F 35% 29.56 in 5.0 mi West 11.5 mph 23.0 mph N/A   Scattered Clouds
2:30 PM 101 °F - 64 °F 21% 29.55 in 6 mi WNW 11.5 mph - -   Partly Cloudy
2:40 PM 100.4 °F 103.6 °F 64.4 °F 31% 29.56 in 5.0 mi West 11.5 mph 23.0 mph N/A   Scattered Clouds
3:10 PM 100.4 °F 103.6 °F 64.4 °F 31% 29.53 in 5.0 mi WNW 11.5 mph 23.0 mph N/A   Scattered Clouds
3:40 PM 102.2 °F 108.4 °F 68.0 °F 33% 29.53 in 5.0 mi WNW 11.5 mph 23.0 mph N/A   Scattered Clouds
4:10 PM 100.4 °F 106.3 °F 68.0 °F 35% 29.56 in 5.0 mi West 9.2 mph 20.7 mph N/A   Scattered Clouds
4:40 PM 100.4 °F 106.3 °F 68.0 °F 35% 29.56 in 5.0 mi West 11.5 mph 23.0 mph N/A   Scattered Clouds
5:10 PM 98.6 °F 102.8 °F 66.2 °F 35% 29.56 in 3.7 mi West 11.5 mph 23.0 mph N/A   Scattered Clouds
5:30 PM 93 °F - 66 °F 31% 29.57 in 2 mi WSW 13.8 mph - -   Haze
5:40 PM 93.2 °F 96.2 °F 66.2 °F 41% 29.59 in 3.7 mi West 11.5 mph 23.0 mph N/A   Scattered Clouds
6:10 PM 93.2 °F 97.7 °F 68.0 °F 44% 29.59 in 3.7 mi WSW 11.5 mph - N/A   Scattered Clouds
6:40 PM 91.4 °F 95.4 °F 68.0 °F 46% 29.59 in 3.7 mi West 11.5 mph 23.0 mph N/A   Scattered Clouds
7:10 PM 91.4 °F 95.4 °F 68.0 °F 46% 29.62 in 3.7 mi West 11.5 mph 23.0 mph N/A   Scattered Clouds
7:40 PM 89.6 °F 92.2 °F 66.2 °F 46% 29.65 in 3.7 mi West 10.4 mph - N/A   Scattered Clouds
8:10 PM 89.6 °F 93.4 °F 68.0 °F 49% 29.65 in 3.7 mi West 13.8 mph 25.3 mph N/A   Mostly Cloudy
8:30 PM 89 °F - 66 °F 37% 29.65 in 2 mi West 10.4 mph - -   Haze
8:40 PM 89.6 °F 93.4 °F 68.0 °F 49% 29.65 in 3.7 mi West 12.7 mph - N/A   Mostly Cloudy
9:10 PM 87.8 °F 91.4 °F 68.0 °F 52% 29.68 in 3.7 mi West 11.5 mph 23.0 mph N/A   Mostly Cloudy
9:40 PM 87.8 °F 91.4 °F 68.0 °F 52% 29.68 in 3.7 mi West 13.8 mph 25.3 mph N/A   Mostly Cloudy
10:10 PM 87.8 °F 91.4 °F 68.0 °F 52% 29.71 in 3.7 mi West 15.0 mph 26.5 mph N/A   Mostly Cloudy
10:40 PM 87.8 °F 91.4 °F 68.0 °F 52% 29.71 in 3.7 mi WNW 11.5 mph - N/A   Mostly Cloudy
11:10 PM 87.8 °F 91.4 °F 68.0 °F 52% 29.71 in 3.7 mi West 13.8 mph - N/A   Mostly Cloudy
11:30 PM 87 °F - 69 °F 46% 29.69 in 2 mi West 11.5 mph - -   Haze
11:40 PM 87.8 °F 92.6 °F 69.8 °F 55% 29.71 in 3.7 mi West 11.5 mph - N/A   Mostly Cloudy